START_TIME,STEP,MOV.,H8,t_acc.,H43,t_acc.,M25,t_acc.,H9,t_acc.
1979-07-21 09:00:29.210 ,0,0,0.,12.0,0.,12.0,0.,12.0,0.,12.0
1979-07-21 09:00:41.210 ,0,0,0.,12.0,0.,12.0,0.,12.0,0.,12.0
1979-07-21 09:00:53.210 ,0,0,0.,12.0,0.,12.0,0.,12.0,0.,12.0
1979-07-21 09:01:05.210 ,0,0,0.,12.0,0.,12.0,0.,12.0,0.,12.0
1979-07-21 09:01:17.210 ,0,0,0.,12.0,0.,12.0,0.,12.0,0.,12.0
1979-07-21 09:01:29.210 ,0,0,0.,12.0,0.,12.0,0.,12.0,0.,12.0
1979-07-21 09:01:41.210 ,1,0,0.,12.0,0.,12.0,0.,12.0,0.,12.0
1979-07-21 09:01:53.210 ,1,0,0.,12.0,0.,12.0,0.,12.0,0.,12.0
1979-07-21 09:02:05.210 ,1,0,0.,12.0,0.,12.0,0.,12.0,0.,12.0
1979-07-21 09:02:17.210 ,1,0,0.,12.0,0.,12.0,0.,12.0,0.,12.0
1979-07-21 09:02:29.210 ,0,0,0.,12.0,0.,12.0,0.,12.0,0.,12.0
1979-07-21 09:02:41.210 ,0,0,0.,12.0,0.,12.0,0.,12.0,0.,12.0
1979-07-21 09:02:53.210 ,0,0,0.,12.0,0.,12.0,0.,12.0,0.,12.0
1979-07-21 09:03:05.210 ,0,0,0.,12.0,0.,12.0,0.,12.0,0.,12.0
1979-07-21 09:03:17.210 ,3,0,0.,12.0,0.,12.0,0.,12.0,0.,12.0
1979-07-21 09:03:29.210 ,3,0,0.,12.0,0.,12.0,0.,12.0,0.,12.0
1979-07-21 09:03:41.210 ,3,0,0.,12.0,0.,12.0,0.,12.0,0.,12.0
1979-07-21 09:03:53.210 ,3,0,0.,12.0,0.,12.0,0.,12.0,0.,12.0
1979-07-21 09:04:05.210 ,4,0,0.,12.0,0.,12.0,0.,12.0,0.,12.0
1979-07-21 09:04:17.210 ,4,0,0.,12.0,0.,12.0,0.,12.0,0.,12.0
1979-07-21 09:04:29.210 ,4,0,0.,12.0,0.,12.0,0.,12.0,0.,12.0
1979-07-21 09:04:41.210 ,4,0,0.,12.0,0.,12.0,0.,12.0,0.,12.0
1979-07-21 09:04:53.210 ,5,0,0.,12.0,0.,12.0,0.,12.0,0.,12.0
1979-07-21 09:05:05.210 ,5,0,0.,12.0,0.,12.0,0.,12.0,0.,12.0
1979-07-21 09:05:17.210 ,5,0,0.,12.0,0.,12.0,0.,12.0,0.,12.0
1979-07-21 09:05:29.210 ,5,0,0.,12.0,0.,12.0,0.,12.0,0.,12.0
1979-07-21 09:05:41.210 ,6,0,0.,12.0,0.,12.0,0.,12.0,0.,12.0
1979-07-21 09:05:53.210 ,6,0,0.,12.0,0.,12.0,0.,12.0,0.,12.0
1979-07-21 09:06:05.210 ,6,0,0.,12.0,0.,12.0,0.,12.0,0.,12.0
1979-07-21 09:06:17.210 ,6,0,0.,12.0,0.,12.0,0.,12.0,0.,12.0
1979-07-21 09:06:29.210 ,7,0,0.,12.0,0.,12.0,0.,12.0,0.,12.0
1979-07-21 09:06:41.210 ,7,0,0.,12.0,0.,12.0,0.,12.0,0.,12.0
1979-07-21 09:06:53.210 ,7,0,0.,12.0,0.,12.0,0.,12.0,0.,12.0
1979-07-21 09:07:05.210 ,7,0,0.,12.0,0.,12.0,0.,12.0,0.,12.0
1979-07-21 09:07:17.210 ,3,1,0.,12.0,0.,12.0,0.,12.0,0.,12.0
1979-07-21 09:07:29.210 ,3,1,0.,12.0,0.,12.0,0.,12.0,0.,12.0
1979-07-21 09:07:41.210 ,0,1,0.,12.0,0.,12.0,0.,12.0,0.,12.0
1979-07-21 09:07:53.210 ,0,1,0.,12.0,0.,12.0,0.,12.0,0.,12.0
1979-07-21 09:08:05.210 ,4,1,0.,12.0,0.,12.0,0.,12.0,0.,12.0
1979-07-21 09:08:17.210 ,4,1,0.,12.0,0.,12.0,0.,12.0,0.,12.0
1979-07-21 09:08:29.210 ,7,1,0.,12.0,0.,12.0,0.,12.0,0.,12.0
1979-07-21 09:08:41.210 ,7,1,0.,12.0,0.,12.0,0.,12.0,0.,12.0
1979-07-21 09:08:53.210 ,3,1,0.,12.0,0.,12.0,0.,12.0,0.,12.0
1979-07-21 09:09:05.210 ,3,1,0.,12.0,0.,12.0,0.,12.0,0.,12.0
1979-07-21 09:09:17.210 ,0,1,0.,12.0,0.,12.0,0.,12.0,0.,12.0
1979-07-21 09:09:29.210 ,0,1,0.,12.0,0.,12.0,0.,12.0,0.,12.0
1979-07-21 09:09:41.210 ,4,1,0.,12.0,0.,12.0,0.,12.0,0.,12.0
1979-07-21 09:09:53.210 ,4,1,0.,12.0,0.,12.0,0.,12.0,0.,12.0
1979-07-21 09:10:05.210 ,7,1,0.,12.0,0.,12.0,0.,12.0,0.,12.0
1979-07-21 09:10:17.210 ,7,1,0.,12.0,0.,12.0,0.,12.0,0.,12.0
1979-07-21 09:10:29.210 ,3,1,0.,12.0,0.,12.0,0.,12.0,0.,12.0
1979-07-21 09:10:41.210 ,3,1,0.,12.0,0.,12.0,0.,12.0,0.,12.0
1979-07-21 09:10:53.210 ,0,1,0.,12.0,0.,12.0,0.,12.0,0.,12.0
1979-07-21 09:11:05.210 ,0,1,0.,12.0,0.,12.0,0.,12.0,0.,12.0
1979-07-21 09:11:17.210 ,4,1,0.,12.0,0.,12.0,0.,12.0,0.,12.0
1979-07-21 09:11:29.210 ,4,1,0.,12.0,0.,12.0,0.,12.0,0.,12.0
1979-07-21 09:11:41.210 ,7,1,0.,12.0,0.,12.0,0.,12.0,0.,12.0
1979-07-21 09:11:53.210 ,7,1,0.,12.0,0.,12.0,0.,12.0,0.,12.0
1979-07-21 09:12:05.210 ,3,1,0.,12.0,0.,12.0,0.,12.0,0.,12.0
1979-07-21 09:12:17.210 ,3,1,0.,12.0,0.,12.0,0.,12.0,0.,12.0
1979-07-21 09:12:29.210 ,0,1,0.,12.0,0.,12.0,0.,12.0,0.,12.0
1979-07-21 09:12:41.210 ,0,1,0.,12.0,0.,12.0,0.,12.0,0.,12.0
1979-07-21 09:12:53.210 ,4,1,0.,12.0,0.,12.0,0.,12.0,0.,12.0
1979-07-21 09:13:05.210 ,4,1,0.,12.0,0.,12.0,0.,12.0,0.,12.0
1979-07-21 09:13:17.210 ,7,1,0.,12.0,0.,12.0,0.,12.0,0.,12.0
1979-07-21 09:13:29.210 ,7,1,0.,12.0,0.,12.0,0.,12.0,0.,12.0
1979-07-21 09:13:41.210 ,3,1,0.,12.0,0.,12.0,0.,12.0,0.,12.0
1979-07-21 09:13:53.210 ,3,1,0.,12.0,0.,12.0,0.,12.0,0.,12.0
1979-07-21 09:14:05.210 ,0,1,0.,12.0,0.,12.0,0.,12.0,0.,12.0
1979-07-21 09:14:17.210 ,0,1,0.,12.0,0.,12.0,0.,12.0,0.,12.0
1979-07-21 09:14:29.210 ,2,1,0.,12.0,0.,12.0,0.,12.0,0.,12.0
1979-07-21 09:14:41.210 ,2,1,,0,,0,,0,,0
1979-07-21 09:14:53.210 ,7,1,0.,12.0,0.,12.0,0.,12.0,0.,12.0
1979-07-21 09:15:05.210 ,7,1,0.,12.0,0.,12.0,0.,12.0,0.,12.0
1979-07-21 09:15:17.210 ,3,1,0.,12.0,0.,12.0,0.,12.0,0.,12.0
1979-07-21 09:15:29.210 ,3,1,0.,12.0,0.,12.0,0.,12.0,0.,12.0
1979-07-21 09:15:41.210 ,0,1,0.,12.0,0.,12.0,0.,12.0,0.,12.0
1979-07-21 09:15:53.210 ,0,1,0.,12.0,0.,12.0,0.,12.0,0.,12.0
1979-07-21 09:16:05.210 ,4,1,0.,12.0,0.,12.0,0.,12.0,0.,12.0
1979-07-21 09:16:17.210 ,4,1,0.,12.0,0.,12.0,0.,12.0,0.,12.0
1979-07-21 09:16:29.210 ,7,1,0.,12.0,0.,12.0,0.,12.0,0.,12.0
1979-07-21 09:16:41.210 ,7,1,0.,12.0,0.,12.0,0.,12.0,0.,12.0
1979-07-21 09:16:53.210 ,3,1,0.,12.0,0.,12.0,0.,12.0,0.,12.0
1979-07-21 09:17:05.210 ,3,1,0.,12.0,0.,12.0,0.,12.0,0.,12.0
1979-07-21 09:17:17.210 ,0,1,0.,12.0,0.,12.0,0.,12.0,0.,12.0
1979-07-21 09:17:29.210 ,0,1,0.,12.0,0.,12.0,0.,12.0,0.,12.0
1979-07-21 09:17:41.210 ,0,0,0.,12.0,0.,12.0,0.,12.0,0.,12.0
1979-07-21 09:17:53.210 ,0,0,0.,12.0,0.,12.0,0.,12.0,0.,12.0
1979-07-21 09:18:05.210 ,0,0,0.,12.0,0.,12.0,0.,12.0,0.,12.0
1979-07-21 09:18:17.210 ,0,0,0.,12.0,0.,12.0,0.,12.0,0.,12.0
1979-07-21 09:18:29.210 ,5,0,0.,12.0,0.,12.0,0.,12.0,0.,12.0
1979-07-21 09:18:41.210 ,5,0,0.,12.0,0.,12.0,0.,12.0,0.,12.0
1979-07-21 09:18:53.210 ,5,0,0.,12.0,0.,12.0,0.,12.0,0.,12.0
1979-07-21 09:19:05.210 ,5,0,0.,12.0,0.,12.0,0.,12.0,0.,12.0
1979-07-21 09:19:17.210 ,4,0,0.,12.0,0.,12.0,0.,12.0,0.,12.0
1979-07-21 09:19:29.210 ,4,0,0.,12.0,0.,12.0,0.,12.0,0.,12.0
1979-07-21 09:19:41.210 ,4,0,0.,12.0,0.,12.0,0.,12.0,0.,12.0
1979-07-21 09:19:53.210 ,4,0,0.,12.0,0.,12.0,0.,12.0,0.,12.0
1979-07-21 09:20:05.210 ,3,0,0.,12.0,0.,12.0,0.,12.0,0.,12.0
1979-07-21 09:20:17.210 ,3,0,0.,12.0,0.,12.0,0.,12.0,0.,12.0
1979-07-21 09:20:29.210 ,3,0,0.,12.0,0.,12.0,0.,12.0,0.,12.0
1979-07-21 09:20:41.210 ,3,0,0.,12.0,0.,12.0,0.,12.0,0.,12.0
1979-07-21 09:20:53.210 ,2,0,0.,12.0,0.,12.0,0.,12.0,0.,12.0
1979-07-21 09:21:05.210 ,2,0,0.,12.0,0.,12.0,0.,12.0,0.,12.0
1979-07-21 09:21:17.210 ,2,0,0.,12.0,0.,12.0,0.,12.0,0.,12.0
1979-07-21 09:21:29.210 ,2,0,0.,12.0,0.,12.0,0.,12.0,0.,12.0
1979-07-21 09:21:41.210 ,1,0,0.,12.0,0.,12.0,0.,12.0,0.,12.0
1979-07-21 09:21:53.210 ,1,0,0.,12.0,0.,12.0,0.,12.0,0.,12.0
1979-07-21 09:22:05.210 ,1,0,0.,12.0,0.,12.0,0.,12.0,0.,12.0
1979-07-21 09:22:17.210 ,1,0,0.,12.0,0.,12.0,0.,12.0,0.,12.0
1979-07-21 09:22:29.210 ,0,0,0.,12.0,0.,12.0,0.,12.0,0.,12.0
1979-07-21 09:22:41.210 ,0,0,0.,12.0,0.,12.0,0.,12.0,0.,12.0
1979-07-21 09:22:53.210 ,0,0,0.,12.0,0.,12.0,0.,12.0,0.,12.0
1979-07-21 09:23:05.210 ,0,0,0.,12.0,0.,12.0,0.,12.0,0.,12.0
1979-07-21 09:23:17.210 ,0,0,0.,12.0,0.,12.0,0.,12.0,0.,12.0
1979-07-21 09:23:29.210 ,0,0,0.,12.0,0.,12.0,0.,12.0,0.,12.0
1979-07-21 09:23:41.210 ,0,0,0.,12.0,0.,12.0,0.,12.0,0.,12.0
1979-07-21 09:23:53.210 ,0,0,0.,12.0,0.,12.0,0.,12.0,0.,12.0
1979-07-21 09:24:05.210 ,1,0,0.,12.0,0.,12.0,0.,12.0,0.,12.0
1979-07-21 09:24:17.210 ,1,0,0.,12.0,0.,12.0,0.,12.0,0.,12.0
1979-07-21 09:24:29.210 ,1,0,0.,12.0,0.,12.0,0.,12.0,0.,12.0
1979-07-21 09:24:41.210 ,1,0,0.,12.0,0.,12.0,0.,12.0,0.,12.0
1979-07-21 09:24:53.210 ,2,0,0.,12.0,0.,12.0,0.,12.0,0.,12.0
1979-07-21 09:25:05.210 ,2,0,0.,12.0,0.,12.0,0.,12.0,0.,12.0
1979-07-21 09:25:17.210 ,2,0,0.,12.0,0.,12.0,0.,12.0,0.,12.0
1979-07-21 09:25:29.210 ,2,0,0.,12.0,0.,12.0,0.,12.0,0.,12.0
1979-07-21 09:25:41.210 ,3,0,0.,12.0,0.,12.0,0.,12.0,0.,12.0
1979-07-21 09:25:53.210 ,3,0,0.,12.0,0.,12.0,0.,12.0,0.,12.0
1979-07-21 09:26:05.210 ,3,0,0.,12.0,0.,12.0,0.,12.0,0.,12.0
1979-07-21 09:26:17.210 ,3,0,0.,12.0,0.,12.0,0.,12.0,0.,12.0
1979-07-21 09:26:29.210 ,4,0,0.,12.0,0.,12.0,0.,12.0,0.,12.0
1979-07-21 09:26:41.210 ,4,0,0.,12.0,0.,12.0,0.,12.0,0.,12.0
1979-07-21 09:26:53.210 ,4,0,0.,12.0,0.,12.0,0.,12.0,0.,12.0
1979-07-21 09:27:05.210 ,4,0,0.,12.0,0.,12.0,0.,12.0,0.,12.0
1979-07-21 09:27:17.210 ,5,0,0.,12.0,0.,12.0,0.,12.0,0.,12.0
1979-07-21 09:27:29.210 ,5,0,0.,12.0,0.,12.0,0.,12.0,0.,12.0
1979-07-21 09:27:41.210 ,5,0,0.,12.0,0.,12.0,0.,12.0,0.,12.0
1979-07-21 09:27:53.210 ,5,0,0.,12.0,0.,12.0,0.,12.0,0.,12.0
1979-07-21 09:28:05.210 ,6,0,0.,12.0,0.,12.0,0.,12.0,0.,12.0
1979-07-21 09:28:17.210 ,6,0,0.,12.0,0.,12.0,0.,12.0,0.,12.0
1979-07-21 09:28:29.210 ,6,0,0.,12.0,0.,12.0,0.,12.0,0.,12.0
1979-07-21 09:28:41.210 ,6,0,0.,12.0,0.,12.0,0.,12.0,0.,12.0
1979-07-21 09:28:53.210 ,7,0,0.,12.0,0.,12.0,0.,12.0,0.,12.0
1979-07-21 09:29:05.210 ,7,0,0.,12.0,0.,12.0,0.,12.0,0.,12.0
1979-07-21 09:29:17.210 ,7,0,0.,12.0,0.,12.0,0.,12.0,0.,12.0
1979-07-21 09:29:29.210 ,7,0,0.,12.0,0.,12.0,0.,12.0,0.,12.0
1979-07-21 09:29:41.210 ,7,0,0.,12.0,0.,12.0,0.,12.0,0.,12.0
1979-07-21 09:29:53.210 ,7,0,0.,12.0,0.,12.0,0.,12.0,0.,12.0
1979-07-21 09:30:05.210 ,7,0,0.,12.0,0.,12.0,0.,12.0,0.,12.0
1979-07-21 09:30:17.210 ,7,0,0.,12.0,0.,12.0,0.,12.0,0.,12.0
1979-07-21 09:30:29.210 ,6,0,0.,12.0,0.,12.0,0.,12.0,0.,12.0
1979-07-21 09:30:41.210 ,6,0,0.,12.0,0.,12.0,0.,12.0,0.,12.0
1979-07-21 09:30:53.210 ,6,0,0.,12.0,0.,12.0,0.,12.0,0.,12.0
1979-07-21 09:31:05.210 ,6,0,0.,12.0,0.,12.0,0.,12.0,0.,12.0
1979-07-21 09:31:17.210 ,5,0,0.,12.0,0.,12.0,0.,12.0,0.,12.0
1979-07-21 09:31:29.210 ,5,0,0.,12.0,0.,12.0,0.,12.0,0.,12.0
1979-07-21 09:31:41.210 ,5,0,0.,12.0,0.,12.0,0.,12.0,0.,12.0
1979-07-21 09:31:53.210 ,5,0,0.,12.0,0.,12.0,0.,12.0,0.,12.0
1979-07-21 09:32:05.210 ,4,0,0.,12.0,0.,12.0,0.,12.0,0.,12.0
1979-07-21 09:32:17.210 ,4,0,0.,12.0,0.,12.0,0.,12.0,0.,12.0
1979-07-21 09:32:29.210 ,4,0,1.,12.0,0.,12.0,0.,12.0,0.,12.0
1979-07-21 09:32:41.210 ,4,0,0.,12.0,0.,12.0,0.,12.0,0.,12.0
1979-07-21 09:32:53.210 ,3,0,0.,12.0,0.,12.0,0.,12.0,0.,12.0
1979-07-21 09:33:05.210 ,3,0,0.,12.0,0.,12.0,0.,12.0,0.,12.0
1979-07-21 09:33:17.210 ,3,0,0.,12.0,0.,12.0,0.,12.0,0.,12.0
1979-07-21 09:33:29.210 ,3,0,0.,12.0,0.,12.0,0.,12.0,0.,12.0
1979-07-21 09:33:41.210 ,2,0,0.,12.0,0.,12.0,0.,12.0,0.,12.0
1979-07-21 09:33:53.210 ,2,0,0.,12.0,0.,12.0,0.,12.0,0.,12.0
1979-07-21 09:34:05.210 ,2,0,0.,12.0,0.,12.0,0.,12.0,0.,12.0
1979-07-21 09:34:17.210 ,2,0,0.,12.0,0.,12.0,0.,12.0,0.,12.0
1979-07-21 09:34:29.210 ,1,0,0.,12.0,0.,12.0,0.,12.0,0.,12.0
1979-07-21 09:34:41.210 ,1,0,0.,12.0,0.,12.0,0.,12.0,0.,12.0
1979-07-21 09:34:53.210 ,1,0,0.,12.0,0.,12.0,0.,12.0,0.,12.0
1979-07-21 09:35:05.210 ,1,0,0.,12.0,0.,12.0,0.,12.0,0.,12.0
1979-07-21 09:35:17.210 ,0,0,0.,12.0,0.,12.0,0.,12.0,0.,12.0
1979-07-21 09:35:29.210 ,0,0,0.,12.0,0.,12.0,0.,12.0,0.,12.0
1979-07-21 09:35:41.210 ,0,0,0.,12.0,0.,12.0,0.,12.0,0.,12.0
1979-07-21 09:35:53.210 ,0,0,0.,12.0,0.,12.0,0.,12.0,0.,12.0
1979-07-21 09:36:05.210 ,0,0,0.,12.0,0.,12.0,0.,12.0,0.,12.0
1979-07-21 09:36:17.210 ,0,0,0.,12.0,0.,12.0,0.,12.0,0.,12.0
1979-07-21 09:36:29.210 ,0,0,0.,12.0,0.,12.0,0.,12.0,0.,12.0
1979-07-21 09:36:41.210 ,0,0,0.,12.0,0.,12.0,0.,12.0,0.,12.0
1979-07-21 09:36:53.210 ,1,0,0.,12.0,0.,12.0,0.,12.0,0.,12.0
1979-07-21 09:37:05.210 ,1,0,0.,12.0,0.,12.0,0.,12.0,0.,12.0
1979-07-21 09:37:17.210 ,1,0,0.,12.0,0.,12.0,0.,12.0,0.,12.0
1979-07-21 09:37:29.210 ,1,0,0.,12.0,0.,12.0,0.,12.0,0.,12.0
1979-07-21 09:37:41.210 ,2,0,0.,12.0,0.,12.0,0.,12.0,0.,12.0
1979-07-21 09:37:53.210 ,2,0,0.,12.0,0.,12.0,0.,12.0,0.,12.0
1979-07-21 09:38:05.210 ,2,0,0.,12.0,0.,12.0,0.,12.0,0.,12.0
1979-07-21 09:38:17.210 ,2,0,0.,12.0,0.,12.0,0.,12.0,0.,12.0
1979-07-21 09:38:29.210 ,3,0,0.,12.0,0.,12.0,0.,12.0,0.,12.0
1979-07-21 09:38:41.210 ,3,0,0.,12.0,0.,12.0,0.,12.0,0.,12.0
1979-07-21 09:38:53.210 ,3,0,0.,12.0,0.,12.0,0.,12.0,0.,12.0
1979-07-21 09:39:05.210 ,3,0,0.,12.0,0.,12.0,0.,12.0,0.,12.0
1979-07-21 09:39:17.210 ,4,0,0.,12.0,0.,12.0,0.,12.0,0.,12.0
1979-07-21 09:39:29.210 ,4,0,0.,12.0,0.,12.0,0.,12.0,0.,12.0
1979-07-21 09:39:41.210 ,4,0,0.,12.0,0.,12.0,0.,12.0,0.,12.0
1979-07-21 09:39:53.210 ,4,0,0.,12.0,0.,12.0,0.,12.0,0.,12.0
1979-07-21 09:40:05.210 ,5,0,0.,12.0,0.,12.0,0.,12.0,0.,12.0
1979-07-21 09:40:17.210 ,5,0,0.,12.0,0.,12.0,0.,12.0,0.,12.0
1979-07-21 09:40:29.210 ,5,0,0.,12.0,0.,12.0,0.,12.0,0.,12.0
1979-07-21 09:40:41.210 ,5,0,0.,12.0,0.,12.0,0.,12.0,0.,12.0
1979-07-21 09:40:53.210 ,6,0,1.,12.0,0.,12.0,0.,12.0,0.,12.0
1979-07-21 09:41:05.210 ,6,0,0.,12.0,0.,12.0,0.,12.0,0.,12.0
1979-07-21 09:41:17.210 ,6,0,0.,12.0,0.,12.0,0.,12.0,0.,12.0
1979-07-21 09:41:29.210 ,6,0,0.,12.0,0.,12.0,0.,12.0,0.,12.0
1979-07-21 09:41:41.210 ,7,0,0.,12.0,0.,12.0,0.,12.0,0.,12.0
1979-07-21 09:41:53.210 ,7,0,0.,12.0,0.,12.0,0.,12.0,0.,12.0
1979-07-21 09:42:05.210 ,7,0,0.,12.0,0.,12.0,0.,12.0,0.,12.0
1979-07-21 09:42:17.210 ,7,0,0.,12.0,0.,12.0,0.,12.0,0.,12.0
1979-07-21 09:42:29.210 ,7,0,0.,12.0,0.,12.0,0.,12.0,0.,12.0
1979-07-21 09:42:41.210 ,7,0,0.,12.0,0.,12.0,0.,12.0,0.,12.0
1979-07-21 09:42:53.210 ,7,0,0.,12.0,0.,12.0,0.,12.0,0.,12.0
1979-07-21 09:43:05.210 ,7,0,0.,12.0,0.,12.0,0.,12.0,0.,12.0
1979-07-21 09:43:17.210 ,6,0,0.,12.0,0.,12.0,0.,12.0,0.,12.0
1979-07-21 09:43:29.210 ,6,0,0.,12.0,0.,12.0,0.,12.0,0.,12.0
1979-07-21 09:43:41.210 ,6,0,0.,12.0,0.,12.0,0.,12.0,0.,12.0
1979-07-21 09:43:53.210 ,6,0,0.,12.0,0.,12.0,0.,12.0,0.,12.0
1979-07-21 09:44:05.210 ,5,0,0.,12.0,0.,12.0,0.,12.0,0.,12.0
1979-07-21 09:44:17.210 ,5,0,0.,12.0,0.,12.0,0.,12.0,0.,12.0
1979-07-21 09:44:29.210 ,5,0,0.,12.0,0.,12.0,0.,12.0,0.,12.0
1979-07-21 09:44:41.210 ,5,0,0.,12.0,1.,12.0,0.,12.0,0.,12.0
1979-07-21 09:44:53.210 ,4,0,0.,12.0,0.,12.0,0.,12.0,0.,12.0
1979-07-21 09:45:05.210 ,4,0,0.,12.0,0.,12.0,0.,12.0,0.,12.0
1979-07-21 09:45:17.210 ,4,0,0.,12.0,0.,12.0,0.,12.0,0.,12.0
1979-07-21 09:45:29.210 ,4,0,0.,12.0,0.,12.0,0.,12.0,0.,12.0
1979-07-21 09:45:41.210 ,3,0,0.,12.0,0.,12.0,0.,12.0,0.,12.0
1979-07-21 09:45:53.210 ,3,0,0.,12.0,0.,12.0,0.,12.0,0.,12.0
1979-07-21 09:46:05.210 ,3,0,0.,12.0,0.,12.0,0.,12.0,0.,12.0
1979-07-21 09:46:17.210 ,3,0,0.,12.0,0.,12.0,0.,12.0,0.,12.0
1979-07-21 09:46:29.210 ,2,0,0.,12.0,0.,12.0,0.,12.0,0.,12.0
1979-07-21 09:46:41.210 ,2,0,0.,12.0,0.,12.0,0.,12.0,0.,12.0
1979-07-21 09:46:53.210 ,2,0,0.,12.0,0.,12.0,0.,12.0,0.,12.0
1979-07-21 09:47:05.210 ,2,0,0.,12.0,0.,12.0,0.,12.0,0.,12.0
1979-07-21 09:47:17.210 ,1,0,0.,12.0,0.,12.0,0.,12.0,0.,12.0
1979-07-21 09:47:29.210 ,1,0,0.,12.0,0.,12.0,0.,12.0,0.,12.0
1979-07-21 09:47:41.210 ,1,0,0.,12.0,0.,12.0,0.,12.0,0.,12.0
1979-07-21 09:47:53.210 ,1,0,0.,12.0,0.,12.0,0.,12.0,0.,12.0
1979-07-21 09:48:05.210 ,0,0,0.,12.0,0.,12.0,0.,12.0,0.,12.0
1979-07-21 09:48:17.210 ,0,0,0.,12.0,0.,12.0,0.,12.0,0.,12.0
1979-07-21 09:48:29.210 ,0,0,0.,12.0,0.,12.0,0.,12.0,0.,12.0
1979-07-21 09:48:41.210 ,0,0,0.,12.0,0.,12.0,0.,12.0,0.,12.0
1979-07-21 09:48:53.210 ,0,0,0.,12.0,0.,12.0,0.,12.0,0.,12.0
1979-07-21 09:49:05.210 ,0,0,0.,12.0,0.,12.0,0.,12.0,0.,12.0
1979-07-21 09:49:17.210 ,0,0,0.,12.0,0.,12.0,0.,12.0,0.,12.0
1979-07-21 09:49:29.210 ,0,0,0.,12.0,0.,12.0,0.,12.0,0.,12.0
1979-07-21 09:49:41.210 ,1,0,0.,12.0,0.,12.0,0.,12.0,0.,12.0
1979-07-21 09:49:53.210 ,1,0,0.,12.0,0.,12.0,0.,12.0,0.,12.0
1979-07-21 09:50:05.210 ,1,0,0.,12.0,0.,12.0,0.,12.0,0.,12.0
1979-07-21 09:50:17.210 ,1,0,0.,12.0,0.,12.0,0.,12.0,0.,12.0
1979-07-21 09:50:29.210 ,2,0,1.,12.0,0.,12.0,0.,12.0,0.,12.0
1979-07-21 09:50:41.210 ,2,0,0.,12.0,0.,12.0,0.,12.0,0.,12.0
1979-07-21 09:50:53.210 ,2,0,0.,12.0,0.,12.0,0.,12.0,0.,12.0
1979-07-21 09:51:05.210 ,2,0,0.,12.0,0.,12.0,0.,12.0,0.,12.0
1979-07-21 09:51:17.210 ,3,0,0.,12.0,0.,12.0,0.,12.0,0.,12.0
1979-07-21 09:51:29.210 ,3,0,0.,12.0,0.,12.0,0.,12.0,0.,12.0
1979-07-21 09:51:41.210 ,3,0,0.,12.0,0.,12.0,0.,12.0,0.,12.0
1979-07-21 09:51:53.210 ,3,0,0.,12.0,0.,12.0,0.,12.0,0.,12.0
1979-07-21 09:52:05.210 ,4,0,0.,12.0,0.,12.0,0.,12.0,0.,12.0
1979-07-21 09:52:17.210 ,4,0,0.,12.0,0.,12.0,0.,12.0,0.,12.0
1979-07-21 09:52:29.210 ,4,0,0.,12.0,0.,12.0,0.,12.0,0.,12.0
1979-07-21 09:52:41.210 ,4,0,0.,12.0,0.,12.0,0.,12.0,0.,12.0
1979-07-21 09:52:53.210 ,5,0,0.,12.0,0.,12.0,0.,12.0,0.,12.0
1979-07-21 09:53:05.210 ,5,0,0.,12.0,0.,12.0,0.,12.0,0.,12.0
1979-07-21 09:53:17.210 ,5,0,0.,12.0,0.,12.0,0.,12.0,0.,12.0
1979-07-21 09:53:29.210 ,5,0,0.,12.0,0.,12.0,0.,12.0,0.,12.0
1979-07-21 09:53:41.210 ,6,0,0.,12.0,0.,12.0,0.,12.0,0.,12.0
1979-07-21 09:53:53.210 ,6,0,0.,12.0,0.,12.0,0.,12.0,0.,12.0
1979-07-21 09:54:05.210 ,6,0,0.,12.0,0.,12.0,0.,12.0,0.,12.0
1979-07-21 09:54:17.210 ,6,0,0.,12.0,0.,12.0,0.,12.0,0.,12.0
1979-07-21 09:54:29.210 ,7,0,0.,12.0,0.,12.0,0.,12.0,0.,12.0
1979-07-21 09:54:41.210 ,7,0,0.,12.0,0.,12.0,0.,12.0,0.,12.0
1979-07-21 09:54:53.210 ,7,0,0.,12.0,0.,12.0,0.,12.0,0.,12.0
1979-07-21 09:55:05.210 ,7,0,0.,12.0,0.,12.0,0.,12.0,0.,12.0
1979-07-21 09:55:17.210 ,3,1,0.,12.0,0.,12.0,0.,12.0,0.,12.0
1979-07-21 09:55:29.210 ,3,1,0.,12.0,0.,12.0,0.,12.0,0.,12.0
1979-07-21 09:55:41.210 ,0,1,0.,12.0,0.,12.0,0.,12.0,0.,12.0
1979-07-21 09:55:53.210 ,0,1,0.,12.0,0.,12.0,0.,12.0,0.,12.0
1979-07-21 09:56:05.210 ,4,1,0.,12.0,0.,12.0,0.,12.0,0.,12.0
1979-07-21 09:56:17.210 ,4,1,0.,12.0,0.,12.0,0.,12.0,0.,12.0
1979-07-21 09:56:29.210 ,7,1,0.,12.0,0.,12.0,0.,12.0,0.,12.0
1979-07-21 09:56:41.210 ,7,1,0.,12.0,0.,12.0,0.,12.0,0.,12.0
1979-07-21 09:56:53.210 ,3,1,0.,12.0,0.,12.0,0.,12.0,0.,12.0
1979-07-21 09:57:05.210 ,3,1,0.,12.0,0.,12.0,0.,12.0,0.,12.0
1979-07-21 09:57:17.210 ,0,1,0.,12.0,0.,12.0,0.,12.0,0.,12.0
1979-07-21 09:57:29.210 ,0,1,0.,12.0,0.,12.0,0.,12.0,0.,12.0
1979-07-21 09:57:41.210 ,4,1,0.,12.0,0.,12.0,0.,12.0,0.,12.0
1979-07-21 09:57:53.210 ,4,1,0.,12.0,0.,12.0,0.,12.0,0.,12.0
1979-07-21 09:58:05.210 ,7,1,0.,12.0,0.,12.0,0.,12.0,0.,12.0
1979-07-21 09:58:17.210 ,7,1,0.,12.0,0.,12.0,0.,12.0,0.,12.0
1979-07-21 09:58:29.210 ,3,1,0.,12.0,0.,12.0,0.,12.0,0.,12.0
1979-07-21 09:58:41.210 ,3,1,0.,12.0,0.,12.0,0.,12.0,0.,12.0
1979-07-21 09:58:53.210 ,0,1,0.,12.0,0.,12.0,0.,12.0,0.,12.0
1979-07-21 09:59:05.210 ,0,1,0.,12.0,0.,12.0,0.,12.0,0.,12.0
1979-07-21 09:59:17.210 ,4,1,0.,12.0,0.,12.0,0.,12.0,0.,12.0
1979-07-21 09:59:29.210 ,4,1,0.,12.0,0.,12.0,0.,12.0,0.,12.0
1979-07-21 09:59:41.210 ,7,1,0.,12.0,0.,12.0,0.,12.0,0.,12.0
1979-07-21 09:59:53.210 ,7,1,1.,12.0,0.,12.0,0.,12.0,0.,12.0
1979-07-21 10:00:05.210 ,3,1,0.,12.0,0.,12.0,0.,12.0,0.,12.0
1979-07-21 10:00:17.210 ,3,1,0.,12.0,0.,12.0,0.,12.0,0.,12.0
1979-07-21 10:00:29.210 ,0,1,0.,12.0,0.,12.0,0.,12.0,0.,12.0
1979-07-21 10:00:41.210 ,0,1,0.,12.0,0.,12.0,0.,12.0,0.,12.0
1979-07-21 10:00:53.210 ,4,1,0.,12.0,0.,12.0,0.,12.0,0.,12.0
1979-07-21 10:01:05.210 ,4,1,0.,12.0,0.,12.0,0.,12.0,0.,12.0
1979-07-21 10:01:17.210 ,7,1,0.,12.0,0.,12.0,0.,12.0,0.,12.0
1979-07-21 10:01:29.210 ,7,1,0.,12.0,0.,12.0,0.,12.0,0.,12.0
1979-07-21 10:01:41.210 ,3,1,0.,12.0,0.,12.0,0.,12.0,0.,12.0
1979-07-21 10:01:53.210 ,3,1,0.,12.0,0.,12.0,0.,12.0,0.,12.0
1979-07-21 10:02:05.210 ,0,1,0.,12.0,0.,12.0,0.,12.0,0.,12.0
1979-07-21 10:02:17.210 ,0,1,0.,12.0,0.,12.0,0.,12.0,0.,12.0
1979-07-21 10:02:29.210 ,4,1,0.,12.0,0.,12.0,0.,12.0,0.,12.0
1979-07-21 10:02:41.210 ,4,1,0.,12.0,0.,12.0,0.,12.0,0.,12.0
1979-07-21 10:02:53.210 ,7,1,0.,12.0,0.,12.0,0.,12.0,0.,12.0
1979-07-21 10:03:05.210 ,7,1,0.,12.0,0.,12.0,0.,12.0,0.,12.0
1979-07-21 10:03:17.210 ,3,1,0.,12.0,0.,12.0,0.,12.0,0.,12.0
1979-07-21 10:03:29.210 ,3,1,0.,12.0,0.,12.0,0.,12.0,0.,12.0
1979-07-21 10:03:41.210 ,0,1,0.,12.0,0.,12.0,0.,12.0,0.,12.0
1979-07-21 10:03:53.210 ,0,1,0.,12.0,0.,12.0,0.,12.0,0.,12.0
1979-07-21 10:04:05.210 ,4,1,0.,12.0,0.,12.0,0.,12.0,0.,12.0
1979-07-21 10:04:17.210 ,4,1,0.,12.0,0.,12.0,0.,12.0,0.,12.0
1979-07-21 10:04:29.210 ,7,1,0.,12.0,0.,12.0,0.,12.0,0.,12.0
1979-07-21 10:04:41.210 ,7,1,0.,12.0,0.,12.0,0.,12.0,0.,12.0
1979-07-21 10:04:53.210 ,3,1,0.,12.0,0.,12.0,0.,12.0,0.,12.0
1979-07-21 10:05:05.210 ,3,1,0.,12.0,0.,12.0,0.,12.0,0.,12.0
1979-07-21 10:05:17.210 ,0,1,0.,12.0,0.,12.0,0.,12.0,0.,12.0
1979-07-21 10:05:29.210 ,0,1,0.,12.0,0.,12.0,0.,12.0,0.,12.0
1979-07-21 10:05:41.210 ,0,0,0.,12.0,0.,12.0,0.,12.0,0.,12.0
1979-07-21 10:05:53.210 ,0,0,0.,12.0,0.,12.0,0.,12.0,0.,12.0
1979-07-21 10:06:05.210 ,0,0,0.,12.0,0.,12.0,0.,12.0,0.,12.0
1979-07-21 10:06:17.210 ,0,0,0.,12.0,0.,12.0,0.,12.0,0.,12.0
1979-07-21 10:06:29.210 ,5,0,0.,12.0,0.,12.0,0.,12.0,0.,12.0
1979-07-21 10:06:41.210 ,5,0,0.,12.0,0.,12.0,0.,12.0,0.,12.0
1979-07-21 10:06:53.210 ,5,0,0.,12.0,0.,12.0,0.,12.0,0.,12.0
1979-07-21 10:07:05.210 ,5,0,0.,12.0,0.,12.0,0.,12.0,0.,12.0
1979-07-21 10:07:17.210 ,4,0,0.,12.0,0.,12.0,0.,12.0,0.,12.0
1979-07-21 10:07:29.210 ,4,0,0.,12.0,0.,12.0,0.,12.0,0.,12.0
1979-07-21 10:07:41.210 ,4,0,0.,12.0,0.,12.0,0.,12.0,0.,12.0
1979-07-21 10:07:53.210 ,4,0,0.,12.0,0.,12.0,0.,12.0,0.,12.0
1979-07-21 10:08:05.210 ,3,0,0.,12.0,0.,12.0,0.,12.0,0.,12.0
1979-07-21 10:08:17.210 ,3,0,0.,12.0,0.,12.0,0.,12.0,0.,12.0
1979-07-21 10:08:29.210 ,3,0,0.,12.0,0.,12.0,0.,12.0,0.,12.0
1979-07-21 10:08:41.210 ,3,0,0.,12.0,0.,12.0,0.,12.0,0.,12.0
1979-07-21 10:08:53.210 ,2,0,0.,12.0,0.,12.0,0.,12.0,0.,12.0
1979-07-21 10:09:05.210 ,2,0,0.,12.0,0.,12.0,0.,12.0,0.,12.0
1979-07-21 10:09:17.210 ,2,0,0.,12.0,0.,12.0,0.,12.0,0.,12.0
1979-07-21 10:09:29.210 ,2,0,0.,12.0,0.,12.0,0.,12.0,0.,12.0
1979-07-21 10:09:41.210 ,1,0,0.,12.0,0.,12.0,0.,12.0,0.,12.0
1979-07-21 10:09:53.210 ,1,0,0.,12.0,0.,12.0,0.,12.0,0.,12.0
1979-07-21 10:10:05.210 ,1,0,0.,12.0,0.,12.0,0.,12.0,0.,12.0
1979-07-21 10:10:17.210 ,1,0,0.,12.0,0.,12.0,0.,12.0,0.,12.0
1979-07-21 10:10:29.210 ,0,0,0.,12.0,0.,12.0,0.,12.0,0.,12.0
1979-07-21 10:10:41.210 ,0,0,0.,12.0,0.,12.0,0.,12.0,0.,12.0
1979-07-21 10:10:53.210 ,0,0,0.,12.0,0.,12.0,0.,12.0,0.,12.0
1979-07-21 10:11:05.210 ,0,0,0.,12.0,0.,12.0,0.,12.0,0.,12.0
1979-07-21 10:11:17.210 ,0,0,0.,12.0,0.,12.0,0.,12.0,0.,12.0
1979-07-21 10:11:29.210 ,0,0,0.,12.0,0.,12.0,0.,12.0,0.,12.0
1979-07-21 10:11:41.210 ,0,0,0.,12.0,0.,12.0,0.,12.0,0.,12.0
1979-07-21 10:11:53.210 ,0,0,0.,12.0,0.,12.0,0.,12.0,0.,12.0
1979-07-21 10:12:05.210 ,1,0,0.,12.0,0.,12.0,0.,12.0,0.,12.0
1979-07-21 10:12:17.210 ,1,0,0.,12.0,0.,12.0,0.,12.0,0.,12.0
1979-07-21 10:12:29.210 ,1,0,1.,12.0,0.,12.0,0.,12.0,0.,12.0
1979-07-21 10:12:41.210 ,1,0,0.,12.0,0.,12.0,0.,12.0,0.,12.0
1979-07-21 10:12:53.210 ,2,0,0.,12.0,0.,12.0,0.,12.0,0.,12.0
1979-07-21 10:13:05.210 ,2,0,0.,12.0,0.,12.0,0.,12.0,0.,12.0
1979-07-21 10:13:17.210 ,2,0,0.,12.0,0.,12.0,0.,12.0,0.,12.0
1979-07-21 10:13:29.210 ,2,0,0.,12.0,0.,12.0,0.,12.0,0.,12.0
1979-07-21 10:13:41.210 ,3,0,0.,12.0,0.,12.0,0.,12.0,0.,12.0
1979-07-21 10:13:53.210 ,3,0,0.,12.0,0.,12.0,0.,12.0,0.,12.0
1979-07-21 10:14:05.210 ,3,0,0.,12.0,0.,12.0,0.,12.0,0.,12.0
1979-07-21 10:14:17.210 ,3,0,0.,12.0,0.,12.0,0.,12.0,0.,12.0
1979-07-21 10:14:29.210 ,4,0,0.,12.0,0.,12.0,0.,12.0,0.,12.0
1979-07-21 10:14:41.210 ,4,0,0.,12.0,0.,12.0,0.,12.0,0.,12.0
1979-07-21 10:14:53.210 ,4,0,0.,12.0,0.,12.0,0.,12.0,0.,12.0
1979-07-21 10:15:05.210 ,4,0,0.,12.0,0.,12.0,0.,12.0,0.,12.0
1979-07-21 10:15:17.210 ,5,0,0.,12.0,0.,12.0,0.,12.0,0.,12.0
1979-07-21 10:15:29.210 ,5,0,0.,12.0,0.,12.0,0.,12.0,0.,12.0
1979-07-21 10:15:41.210 ,5,0,0.,12.0,0.,12.0,0.,12.0,0.,12.0
1979-07-21 10:15:53.210 ,5,0,0.,12.0,0.,12.0,0.,12.0,0.,12.0
1979-07-21 10:16:05.210 ,6,0,0.,12.0,0.,12.0,0.,12.0,0.,12.0
1979-07-21 10:16:17.210 ,6,0,0.,12.0,0.,12.0,0.,12.0,0.,12.0
1979-07-21 10:16:29.210 ,6,0,0.,12.0,0.,12.0,0.,12.0,0.,12.0
1979-07-21 10:16:41.210 ,6,0,0.,12.0,0.,12.0,0.,12.0,0.,12.0
1979-07-21 10:16:53.210 ,7,0,0.,12.0,0.,12.0,1.,12.0,0.,12.0
1979-07-21 10:17:05.210 ,7,0,0.,12.0,0.,12.0,0.,12.0,0.,12.0
1979-07-21 10:17:17.210 ,7,0,0.,12.0,0.,12.0,0.,12.0,0.,12.0
1979-07-21 10:17:29.210 ,7,0,0.,12.0,0.,12.0,0.,12.0,0.,12.0